Location: Newark
(41.9364°N, 2.8061°E)
Time: 17:47:45
(UTC+00:00)

X-37B - Pass Details

Date: 07 August 2021
Orbit: 381 x 393 km, 45.0° (Epoch: 29 August)

Event Time Altitude Azimuth Distance (km) Brightness Sun altitude
Exits shadow 02:33:16 54° 17° (NNE) 468 1.2 -21.2°
Drops below altitude 10° 02:36:04 10° 69° (ENE) 1,398 4.3 -20.8°
Sets 02:38:10 0° 73° (ENE) 2,252 5.4 -20.6°
